Regional Weather Roundup
Issued by NWS

Home | Current Version | Previous Version | Graphics & Text | Print | Product List | Glossary On
Versions: 1 2 3 4 5 6 7 8 9 10 11 12 13 14 15 16 17 18 19 20 21 22 23 24 25 26 27 28 29 30 31 32 33 34 35 36 37 38 39 40 41 42 43 44 45 46 47 48 49 50
387
ASUS43 KFSD 280702
RWRSD

WEATHER ROUNDUP FOR SOUTH DAKOTA
NATIONAL WEATHER SERVICE SIOUX FALLS SD
200 AM CDT WED SEP 28 2016

NOTE: "FAIR" INDICATES FEW OR NO CLOUDS BELOW 12,000 FEET WITH NO
SIGNIFICANT WEATHER AND/OR OBSTRUCTIONS TO VISIBILITY.


SDZ001>005-009-010-012>017-280800-
NORTHWEST AND NORTH CENTRAL SOUTH DAKOTA

CITY           SKY/WX    TMP DP  RH WIND       PRES   REMARKS
BUFFALO          N/A     61  45  55 NW5       30.03R
FAITH            N/A     56  43  61 SE10      30.08R
MOBRIDGE       CLOUDY    45  35  68 NE6       30.05R
$$

SDZ012>016-024>037-041>051-057-063-072>074-280800-
SOUTHWEST AND SOUTH CENTRAL SOUTH DAKOTA

CITY           SKY/WX    TMP DP  RH WIND       PRES   REMARKS
RAPID CTY ARPT CLEAR     55  41  59 NW8       30.12R
PIERRE         CLEAR     47  40  76 NW3       30.05R
CUSTER         CLEAR     48  35  60 N5        30.24R
ELLSWORTH AFB  CLEAR     53  41  63 W6        30.10R
PHILIP         CLEAR     45  41  86 W3        30.07R
PINE RIDGE     CLEAR     42  39  89 CALM      30.11R
WINNER         FAIR      49  43  80 SW5       30.05R HAZE
$$

SDZ004>011-016>023-039-040-280800-
NORTHEAST SOUTH DAKOTA

CITY           SKY/WX    TMP DP  RH WIND       PRES   REMARKS
ABERDEEN       CLOUDY    41  35  79 N7        30.07R
WATERTOWN      CLEAR     40  38  93 N6        30.03R
SISSETON         N/A     49  44  83 N7        30.05R
$$

SDZ017-020-022-023-036>040-048>070-280800-
SOUTHEAST SOUTH DAKOTA

CITY           SKY/WX    TMP DP  RH WIND       PRES   REMARKS
SIOUX FALLS    CLEAR     48  39  71 N8        30.00R
HURON          CLOUDY    38  35  89 N6        30.03R
CHAMBERLAIN    CLEAR     53  41  65 CALM      30.04R
MITCHELL       CLOUDY    47  36  65 N5        30.02R
YANKTON        CLEAR     52  37  58 N10       29.98R
$$

ABBREVIATIONS USED IN REMARKS
   TC - TEMPERATURE IN CELSIUS
  WCI - WIND CHILL INDEX
   HX - HEAT INDEX
  VSB - VISIBILITY





USA.gov is the U.S. government's official web portal to all federal, state and local government web resources and services.